Regional Weather Roundup
Issued by NWS Green Bay, WI

Home | Current Version | Previous Version | Text Only | Print | Product List | Glossary On
Versions: 1 2 3 4 5 6 7 8 9 10 11 12 13 14 15 16 17 18 19 20 21 22 23 24 25 26 27 28 29 30 31 32 33 34 35 36 37 38 39 40 41 42 43 44 45 46 47 48 49 50
000
ASUS43 KGRB 311800
RWRGRB

NORTH-CENTRAL AND NORTHEAST WISCONSIN REGIONAL WEATHER ROUNDUP
NATIONAL WEATHER SERVICE GREEN BAY WI
100 PM CDT FRI JUL 31 2015

WIZ005-009-010>012-018-019-311900-
NORTH CENTRAL WISCONSIN

CITY           SKY/WX    TMP DP  RH WIND       PRES   REMARKS
IRONWOOD       MOSUNNY   72  54  53 W15G25    29.92S
MANITOWISH WTR NOT AVBL
ARBOR VITAE    NOT AVBL
EAGLE RIVER    NOT AVBL
LAND O LAKES   NOT AVBL
RHINELANDER    PTSUNNY   75  52  44 NW13G20   29.95F
PHILLIPS       PTSUNNY   73  53  49 NW13G23   29.97S
ANTIGO         NOT AVBL
TOMAHAWK       NOT AVBL
MERRILL        NOT AVBL
$$

WIZ013-073-311900-
NORTHEAST WISCONSIN

CITY           SKY/WX    TMP DP  RH WIND       PRES   REMARKS
IRON MOUNTAIN  PTSUNNY   76  50  40 NW15G25   29.87F
MARINETTE      MOSUNNY   79  54  41 NW13G23   29.86S
$$

WIZ017-030-035>037-045-311900-
CENTRAL WISCONSIN

CITY           SKY/WX    TMP DP  RH WIND       PRES   REMARKS
MEDFORD        NOT AVBL
WAUSAU         MOSUNNY   76  49  38 NW12G22   29.95F
MOSINEE        PTSUNNY   75  52  43 NW15G24   29.98F
MARSHFIELD     MOSUNNY   78  51  38 NW16G31   29.99F
WISC RAPIDS    PTSUNNY   80  47  31 NW16G30   29.99F
STEVENS POINT  NOT AVBL
WAUPACA        NOT AVBL
SHAWANO        NOT AVBL
CLINTONVILLE   MOSUNNY   79  46  31 W13G22    29.93S
$$

WIZ038-039-048-051-311900-
FOX VALLEY

CITY           SKY/WX    TMP DP  RH WIND       PRES   REMARKS
NWS GREEN BAY  MOSUNNY   80  55  42 NW13G25   29.91S
APPLETON       PTSUNNY   75  46  35 NW17G29   29.94F
OSHKOSH        MOSUNNY   79  52  38 NW20G26   29.94S
FOND DU LAC    MOSUNNY   82  50  32 W23G32    29.95F
$$

WIZ022-050-052-311900-
EAST CENTRAL WISCONSIN

CITY           SKY/WX    TMP DP  RH WIND       PRES   REMARKS
STURGEON BAY   SUNNY     79  54  41 W15G21    29.90F
MANITOWOC      NOT AVBL
SHEBOYGAN      MOSUNNY   79  52  38 NW16G29   29.93S
$$

LMZ563-521-522-541>543-311900-
LAKESHORE

STATION/POSITION TIME  TEMP    WIND        PRES    VSBY  WAVE
                       AIR SEA DIR/SP/G                  HT/PER
                 (UTC) (F)     (DEG/KT/KT) (MB)    (MI)  (FT/S)
SHEBOYGAN LKSHOR 1700   77     300/ 16/ 21 1013.3R
KEWAUNEE LKSHORE 1700   77     300/ 10/ 19 1011.8S
ALGOMA MARINA    1727          260/ 11/ 20   N/A
NORTHPORT PIER   1700   76     310/ 10/ 13 1010.8F
N MID LAKE BUOY  1650   69 68  250/ 10/ 12 1010.5S         2/ 4
S GREEN BAY BUOY 1700   72 71  280/ 12/ 14 1013.5F
SISTER BAY LKSHO 1714   77     310/ 12/ 14   N/A
CHAMBERS ISLAND  1700   78     260/  3/  9 1011.2F
MENOMINEE LKSHOR 1700   78     290/ 11/ 17 1012.2F
$$


USA.gov is the U.S. government's official web portal to all federal, state and local government web resources and services.